SCP
0 0 0 0 0 0 0 0 0 0 0 0 0 0 0 0 0 0 0 0 0 0 0 0 0 0 0 0 0 0 0 0 0 0 0 0 0 0 0 0 0 0 0 0 -0
0 0 0 0 0 0 0 0 0 0 0 0 0 0 0 0 0 0 0 0 0 0 0 0 0 0 0 0 0 0 0 0 0 0 0 0 0 0 0 0 0 0 0 0 -0
0 0 0 0 0 0 -0 0 0 0 0 0 0 0 0 0 0 0 0 0 0 0 0 0 0 0 0 0 0 0 0 0 0 0 0 0 0 0 0 0 0 0 0 0 0
0 0 0 0 0 0 -0 -0 0 0 0 0 0 0 0 0 0 0 0 0 0 0 0 0 0 0 0 0 0 0 0 0 0 0 0 0 0 0 0 0 0 0 0 0 0
0 0 0 0 0 0 0 0 0 0 0 0 0 0 0 0 0 0 0 0 0 0 0 0 0 0 0 0 0 0 0 0 0 0 0 0 0 0 0 0 0 0 0 0 0
0 0 0 0 -0 -0 0 0 0 0 0 0 0 0 0 0 0 0 0 0 0 0 0 0 0 0 0 0 0 0 0 0 0 0 0 0 0 0 0 0 0 0 0 0 0
0 0 0 0 0 -0 -0 0 -0 0 0 0 0 0 0 0 0 0 0 0 0 0 0 0 0 0 0 0 0 0 0 0 0 0 0 0 0 0 0 0 0 0 0 0 0
0 0 0 0 0 -0 -0 -0 -0 0 0 0 0 0 0 0 0 0 0 0 0 0 0 0 0 0 0 0 0 0 0 0 0 0 0 0 0 0 0 0 0 0 0 0 0
0 0 0 0 0 -0 -0 -0 0 0 0 0 0 0 0 0 0 0 0 0 0 0 0 0 0 0 0 0 0 0 0 0 0 0 0 0 0 0 0 0 0 0 0 0 0
0 0 0 0 0 0 -0 0 0 0 0 0 0 0 0 0 0 0 0 0 0 0 0 0 0 0 0 0 0 0 0 0 0 0 0 0 0 0 0 0 0 0 0 0 0
0 0 0 0 0 0 0 0 0 0 0 0 0 0 0 0 0 0 0 0 0 0 0 0 0 0 0 0 0 0 0 0 0 0 0 0 0 0 0 0 0 0 0 0 0
0 0 0 0 0 0 0 0 0 0 0 0 0 0 0 0 0 0 0 0 0 0 0 0 0 0 0 0 0 0 0 0 0 0 0 0 0 0 0 0 0 0 0 0 0
0 0 0 0 0 0 0 0 0 0 0 0 0 0 0 0 0 0 0 0 0 0 0 0 0 0 0 0 0 0 0 0 0 0 0 0 0 0 0 0 0 0 0 0 0
0 0 0 0 0 0 -0 0 0 0 0 0 0 0 0 0 0 0 0 0 0 0 0 0 0 0 0 0 0 0 0 0 0 0 0 0 0 0 0 -0 0 0 0 0 0
0 0 0 0 0 0 0 0 0 0 0 0 0 0 0 0 0 0 0 0 0 0 0 0 0 0 0 0 0 0 0 0 0 0 0 0 0 -0 0 0 0 -0 0 0 0
0 0 0 0 0 0 0 0 0 0 0 0 0 0 0 0 0 0 0 0 0 0 0 0 0 0 0 0 0 0 0 0 0 0 0 0 0 0 0 0 0 0 0 0 0
0 0 0 0 0 0 0 0 0 0 0 0 0 0 0 0 0 0 0 0 0 0 0 0 0 0 0 0 0 0 0 0 0 0 0 0 0 0 0 0 0 0 0 0 0
0 0 0 0 0 0 0 0 0 0 0 0 0 0 0 0 0 0 0 0 0 0 0 0 0 0 0 0 0 0 0 0 0 0 0 0 0 0 -0 0 0 0 0 0 0
0 0 -0 0 0 0 0 0 0 0 0 0 0 0 0 0 0 0 0 0 0 0 0 0 0 0 0 0 0 0 0 0 0 0 0 0 0 0 0 0 0 0 0 0 0
-0 -0 -0 0 0 0 0 -0 0 0 0 0 0 0 0 0 0 0 0 0 0 0 0 0 0 0 0 0 0 0 0 0 0 0 0 0 0 0 0 0 0 0 0 0 0
-0 -0 -0 0 0 0 0 0 0 0 0 0 0 0 0 0 0 0 0 0 0 0 0 0 0 0 0 0 0 0 0 0 0 0 0 0 0 0 0 0 0 0 0 0 0
-0 -0 -0 0 0 0 0 0 0 0 0 0 0 0 0 0 0 0 0 0 0 0 0 0 0 0 0 0 0 0 0 0 0 0 0 0 0 0 0 0 0 0 0 0 0
0 0 0 1 0 0 0 0 0 0 0 0 0 0 0 0 0 0 0 0 0 0 0 0 0 0 0 0 0 0 0 0 0 0 0 0 0 0 0 0 0 0 0 0 0
0 0 1 0 0 0 0 0 0 0 0 0 0 0 0 0 0 0 0 0 0 0 0 0 0 0 0 0 0 0 0 0 0 0 0 0 0 0 0 0 0 0 0 0 0
0 0 0 0 0 0 0 0 0 0 0 0 0 0 0 0 0 0 0 0 0 0 0 0 0 0 0 0 0 0 0 0 0 0 0 0 0 0 0 0 0 0 0 0 0
0 0 0 0 0 0 0 0 0 0 0 0 0 0 0 0 0 0 0 0 0 0 0 0 0 0 0 0 0 0 0 0 0 0 0 0 0 0 0 0 0 0 0 0 0
0 0 0 0 0 0 0 0 0 0 0 0 0 0 0 0 0 0 0 0 0 0 0 0 0 0 0 0 0 0 0 0 0 0 0 0 0 0 0 0 0 0 0 0 0
Wind_Speed_500mb
52 55 57 60 71 73 78 56 54 55 68 61 60 46 44 49 50 52 56 33 34 40 47 45 23 12 10 11 12 16 8 6 8 12 8 21 13 14 14 21 19 17 8 13 44
54 54 57 58 64 79 96 60 58 57 70 66 50 62 49 40 43 61 57 43 45 28 39 53 42 10 6 13 9 8 8 16 13 9 6 17 18 30 14 14 13 20 16 15 50
50 52 55 61 53 69 92 91 62 62 68 64 50 57 56 42 30 42 68 61 44 42 39 50 39 18 5 9 12 10 10 11 11 16 10 8 11 26 24 6 29 39 32 26 54
48 48 51 56 50 52 84 103 69 65 63 81 55 59 59 52 17 13 52 70 62 44 52 40 28 16 12 9 10 11 12 12 8 10 11 9 11 15 30 15 27 27 28 32 50
44 50 45 51 63 69 58 65 56 63 65 91 61 64 56 55 31 12 12 61 62 60 51 53 47 16 11 12 13 8 8 18 8 7 9 11 21 13 37 20 16 31 30 36 44
52 52 47 43 48 52 62 81 46 67 65 74 69 70 74 35 35 21 5 61 66 55 58 62 39 42 14 11 13 17 17 10 8 8 4 12 5 7 17 30 20 26 31 38 41
47 50 49 45 43 46 50 67 74 54 65 72 70 74 63 57 45 48 25 45 67 64 54 61 44 41 19 11 12 12 9 3 5 8 7 10 5 17 14 36 25 29 33 40 42
50 43 56 46 46 44 48 61 69 41 60 69 83 90 31 64 45 43 32 42 64 61 61 54 52 29 3 16 9 9 9 7 5 9 6 13 11 12 24 27 37 32 37 41 41
52 50 57 52 48 49 43 47 69 68 44 63 92 72 25 36 71 47 29 48 64 62 48 35 37 25 13 11 6 8 9 10 5 15 8 7 12 5 25 26 32 32 38 43 44
47 47 50 49 46 62 47 51 59 57 62 72 76 46 25 51 66 72 46 43 54 48 46 34 21 9 7 15 17 12 9 7 12 5 4 5 15 2 11 24 30 32 38 43 45
50 47 46 49 44 45 53 46 43 31 67 38 59 40 48 38 60 51 50 52 45 35 9 25 17 27 28 16 10 12 9 9 6 5 9 12 15 15 15 15 25 37 40 45 49
55 48 43 42 41 50 51 66 69 19 22 44 59 54 51 61 33 56 67 33 40 39 8 10 29 13 16 16 13 9 12 9 0 2 8 6 20 14 14 22 35 42 43 50 51
54 50 47 42 39 50 71 79 64 57 14 13 61 70 71 72 49 73 86 49 55 20 15 19 15 23 16 11 16 7 14 11 6 3 3 4 14 13 11 33 44 40 40 42 54
54 51 42 36 43 54 86 58 61 60 12 13 21 29 57 54 16 58 82 51 14 29 15 12 7 23 15 12 12 11 13 11 11 8 7 5 10 10 14 19 15 54 56 62 61
54 49 48 47 39 49 78 62 68 64 17 37 13 44 55 56 60 28 31 13 27 20 17 12 19 24 12 17 16 11 13 13 6 8 4 2 4 13 4 12 17 45 63 70 70
34 35 39 49 62 70 54 62 70 12 15 15 19 21 29 24 33 33 16 14 21 12 14 6 6 17 15 9 7 20 15 15 10 6 5 11 10 9 11 20 17 42 59 69 76
28 33 47 59 79 72 60 60 21 16 9 18 17 34 23 22 26 40 24 17 17 25 19 4 4 4 12 16 8 8 13 6 3 3 10 2 3 14 18 18 12 8 15 13 18
31 34 53 64 69 61 64 28 24 16 16 7 37 45 24 28 22 42 30 21 9 7 21 26 10 17 9 14 19 14 17 11 13 8 6 1 13 12 25 23 34 36 18 11 8
36 48 62 71 73 66 48 27 29 27 19 32 45 40 16 14 21 37 43 42 13 20 17 15 7 2 5 9 25 12 11 15 14 3 4 9 12 22 14 18 28 23 25 26 13
40 49 64 67 73 65 26 40 13 28 22 49 34 18 26 29 32 27 49 41 25 30 5 15 11 1 5 11 6 20 23 8 4 8 8 6 9 11 4 5 6 12 27 30 29
43 21 54 62 62 49 22 24 14 28 56 32 37 21 20 51 36 45 62 19 39 30 7 13 10 6 11 13 17 9 14 6 12 9 10 2 11 10 9 9 8 16 20 33 35
46 19 29 65 28 22 33 11 22 47 57 7 14 11 45 47 25 25 34 12 78 38 19 11 12 9 9 1 1 5 16 13 13 10 1 6 10 2 9 14 18 20 25 30 33
18 41 47 103 34 24 17 18 18 51 44 20 16 11 48 29 18 10 19 25 75 34 27 17 3 10 7 6 4 10 2 10 13 6 13 9 10 3 4 2 4 19 27 30 34
16 16 31 83 77 33 30 14 26 63 9 12 22 31 34 22 12 15 14 9 62 36 38 22 8 13 20 10 16 14 12 12 13 6 10 14 7 10 9 7 10 22 30 35 35
24 10 17 41 28 42 34 34 50 27 9 18 10 44 48 24 10 16 22 16 7 34 16 10 9 5 11 8 14 14 29 24 36 42 25 31 28 10 16 17 20 27 31 31 32
12 11 19 25 57 48 37 44 64 33 26 30 44 58 51 37 29 38 24 15 31 8 10 5 6 8 9 8 8 10 21 36 42 28 24 9 11 13 20 26 26 35 37 38 34
38 28 41 39 42 43 35 47 69 47 9 36 41 40 36 26 23 41 36 19 30 23 9 12 11 7 4 4 12 7 28 25 24 13 34 24 17 14 12 27 50 47 46 41 32
Wind_Direction_500mb
237 237 237 237 233 228 235 236 231 233 226 242 225 232 205 205 213 216 201 185 188 208 200 197 198 142 157 151 144 135 77 185 216 159 230 169 174 174 172 155 165 185 159 164 179
237 235 238 238 240 236 231 236 231 230 225 231 230 216 197 196 202 209 203 192 188 196 206 209 186 169 161 166 152 114 137 210 196 197 223 196 184 166 162 159 194 191 195 180 181
237 234 231 235 237 242 236 241 227 228 224 226 225 213 201 189 205 231 208 192 192 195 187 179 165 168 196 177 159 136 189 194 215 213 215 225 213 174 152 208 208 201 198 185 185
235 231 230 235 239 237 236 242 218 224 225 220 221 209 199 192 207 201 226 204 201 198 200 183 150 151 174 181 179 132 239 185 177 187 160 188 194 205 191 201 221 213 213 198 192
234 226 231 229 229 243 230 224 226 221 222 217 212 206 199 199 214 146 217 210 204 199 205 207 200 167 192 159 165 165 190 207 213 219 224 193 222 222 216 201 175 199 206 209 203
231 226 232 230 230 233 237 217 239 219 219 215 219 204 196 211 214 199 312 205 201 195 206 211 202 188 235 172 192 212 173 186 202 219 193 161 200 205 234 207 187 191 207 211 213
238 228 227 230 233 236 248 231 235 221 213 211 213 212 201 207 211 199 227 211 191 195 190 195 198 164 197 142 197 143 139 74 178 209 148 160 120 229 226 205 210 203 209 210 214
231 232 222 225 227 239 251 238 231 230 212 206 209 205 203 222 211 207 205 196 193 200 208 196 161 174 142 131 70 105 65 148 232 171 186 158 258 240 214 205 217 212 208 209 214
230 227 221 230 231 231 247 229 219 232 216 207 194 199 205 211 216 220 192 187 187 195 202 167 197 187 219 101 78 24 164 196 251 199 156 170 228 223 199 206 217 217 213 211 214
220 221 222 227 231 226 236 219 212 238 229 200 188 178 176 202 196 198 175 188 162 155 159 162 196 155 125 156 193 170 158 214 197 207 149 169 263 292 212 208 220 226 223 222 221
214 222 222 228 226 226 225 217 197 213 232 197 167 192 182 183 181 172 174 167 147 178 187 174 173 194 185 166 155 146 133 163 201 198 159 201 249 235 216 221 233 235 233 229 228
212 219 225 228 225 218 224 216 202 162 196 228 192 183 173 179 153 161 163 146 164 182 198 129 204 191 150 141 131 136 154 196 294 60 157 169 254 261 216 243 226 230 237 239 239
212 221 229 234 231 222 223 216 211 208 186 231 187 177 163 167 160 161 171 159 172 161 183 171 183 156 141 144 141 160 167 183 161 83 60 50 283 261 242 239 249 245 240 246 246
215 222 226 231 231 229 225 214 217 212 198 185 209 169 167 168 139 165 174 156 162 176 130 161 128 149 140 168 130 163 194 143 130 108 221 102 274 257 237 234 219 242 241 242 244
217 216 220 221 223 235 224 211 216 208 214 149 177 153 172 163 137 184 163 149 164 153 144 176 153 155 153 173 159 210 130 136 102 104 59 359 274 264 17 254 238 242 237 241 245
224 231 224 225 232 226 223 228 198 184 205 147 147 139 164 150 160 139 134 92 119 94 65 111 159 161 161 80 137 155 86 57 55 85 282 215 170 259 193 209 230 228 233 238 243
236 248 234 227 228 220 215 212 196 211 162 155 147 152 160 146 139 162 153 162 163 138 164 89 182 127 140 92 39 95 104 41 10 350 220 91 180 254 253 242 212 224 210 242 259
257 250 234 233 233 221 228 226 204 142 169 188 150 153 152 142 162 169 159 163 241 101 142 164 199 175 182 172 158 175 154 151 182 202 227 233 232 242 233 262 249 236 218 220 267
274 263 252 238 225 219 217 232 218 148 155 146 146 154 141 148 130 157 179 189 191 187 152 150 188 70 157 158 153 187 188 148 106 48 57 215 296 302 258 259 256 230 215 216 198
284 277 255 238 217 215 235 221 212 170 132 154 144 161 160 154 138 160 180 197 187 190 210 180 117 277 167 98 29 179 150 165 48 138 251 279 273 239 236 157 152 199 204 179 162
287 257 253 227 203 203 221 213 250 180 155 164 143 151 175 173 160 175 185 197 200 180 131 123 105 197 140 210 160 123 181 103 122 159 171 200 261 220 260 290 277 240 200 175 165
262 228 216 185 183 192 220 171 225 161 163 141 131 87 162 158 154 162 178 225 193 170 158 166 115 142 180 243 169 183 172 154 182 209 169 146 272 125 283 274 257 243 191 179 167
264 216 205 174 189 186 166 198 218 159 167 145 147 146 162 156 135 127 153 221 171 171 168 176 123 101 56 353 27 206 244 126 102 95 190 152 254 301 8 16 123 161 169 169 162
264 201 172 186 190 181 179 182 173 176 95 98 130 120 137 154 118 146 133 182 177 177 188 122 150 162 183 194 130 157 163 162 137 184 163 217 206 241 201 197 153 145 154 157 155
221 235 183 173 169 173 181 162 165 173 162 131 98 155 159 155 112 160 142 126 151 175 156 136 140 94 32 130 123 151 176 179 198 217 197 233 215 213 205 194 185 160 159 166 166
244 229 156 164 160 164 194 183 171 160 166 177 171 170 168 169 183 173 151 149 174 103 124 5 175 110 29 10 125 137 175 188 208 209 239 129 231 224 202 188 198 193 185 183 177
216 233 176 166 169 174 198 180 177 161 343 173 154 155 172 161 103 142 146 119 139 154 122 117 124 99 187 349 88 354 207 190 208 193 215 217 194 180 191 202 214 205 199 191 192
Wind_Speed_850mb
52 55 57 60 71 73 78 56 54 55 68 61 60 46 44 49 50 52 56 33 34 40 47 45 23 12 10 11 12 16 8 6 8 12 8 21 13 14 14 21 19 17 8 13 44
54 54 57 58 64 79 96 60 58 57 70 66 50 62 49 40 43 61 57 43 45 28 39 53 42 10 6 13 9 8 8 16 13 9 6 17 18 30 14 14 13 20 16 15 50
50 52 55 61 53 69 92 91 62 62 68 64 50 57 56 42 30 42 68 61 44 42 39 50 39 18 5 9 12 10 10 11 11 16 10 8 11 26 24 6 29 39 32 26 54
48 48 51 56 50 52 84 103 69 65 63 81 55 59 59 52 17 13 52 70 62 44 52 40 28 16 12 9 10 11 12 12 8 10 11 9 11 15 30 15 27 27 28 32 50
44 50 45 51 63 69 58 65 56 63 65 91 61 64 56 55 31 12 12 61 62 60 51 53 47 16 11 12 13 8 8 18 8 7 9 11 21 13 37 20 16 31 30 36 44
52 52 47 43 48 52 62 81 46 67 65 74 69 70 74 35 35 21 5 61 66 55 58 62 39 42 14 11 13 17 17 10 8 8 4 12 5 7 17 30 20 26 31 38 41
47 50 49 45 43 46 50 67 74 54 65 72 70 74 63 57 45 48 25 45 67 64 54 61 44 41 19 11 12 12 9 3 5 8 7 10 5 17 14 36 25 29 33 40 42
50 43 56 46 46 44 48 61 69 41 60 69 83 90 31 64 45 43 32 42 64 61 61 54 52 29 3 16 9 9 9 7 5 9 6 13 11 12 24 27 37 32 37 41 41
52 50 57 52 48 49 43 47 69 68 44 63 92 72 25 36 71 47 29 48 64 62 48 35 37 25 13 11 6 8 9 10 5 15 8 7 12 5 25 26 32 32 38 43 44
47 47 50 49 46 62 47 51 59 57 62 72 76 46 25 51 66 72 46 43 54 48 46 34 21 9 7 15 17 12 9 7 12 5 4 5 15 2 11 24 30 32 38 43 45
50 47 46 49 44 45 53 46 43 31 67 38 59 40 48 38 60 51 50 52 45 35 9 25 17 27 28 16 10 12 9 9 6 5 9 12 15 15 15 15 25 37 40 45 49
55 48 43 42 41 50 51 66 69 19 22 44 59 54 51 61 33 56 67 33 40 39 8 10 29 13 16 16 13 9 12 9 0 2 8 6 20 14 14 22 35 42 43 50 51
54 50 47 42 39 50 71 79 64 57 14 13 61 70 71 72 49 73 86 49 55 20 15 19 15 23 16 11 16 7 14 11 6 3 3 4 14 13 11 33 44 40 40 42 54
54 51 42 36 43 54 86 58 61 60 12 13 21 29 57 54 16 58 82 51 14 29 15 12 7 23 15 12 12 11 13 11 11 8 7 5 10 10 14 19 15 54 56 62 61
54 49 48 47 39 49 78 62 68 64 17 37 13 44 55 56 60 28 31 13 27 20 17 12 19 24 12 17 16 11 13 13 6 8 4 2 4 13 4 12 17 45 63 70 70
34 35 39 49 62 70 54 62 70 12 15 15 19 21 29 24 33 33 16 14 21 12 14 6 6 17 15 9 7 20 15 15 10 6 5 11 10 9 11 20 17 42 59 69 76
28 33 47 59 79 72 60 60 21 16 9 18 17 34 23 22 26 40 24 17 17 25 19 4 4 4 12 16 8 8 13 6 3 3 10 2 3 14 18 18 12 8 15 13 18
31 34 53 64 69 61 64 28 24 16 16 7 37 45 24 28 22 42 30 21 9 7 21 26 10 17 9 14 19 14 17 11 13 8 6 1 13 12 25 23 34 36 18 11 8
36 48 62 71 73 66 48 27 29 27 19 32 45 40 16 14 21 37 43 42 13 20 17 15 7 2 5 9 25 12 11 15 14 3 4 9 12 22 14 18 28 23 25 26 13
40 49 64 67 73 65 26 40 13 28 22 49 34 18 26 29 32 27 49 41 25 30 5 15 11 1 5 11 6 20 23 8 4 8 8 6 9 11 4 5 6 12 27 30 29
43 21 54 62 62 49 22 24 14 28 56 32 37 21 20 51 36 45 62 19 39 30 7 13 10 6 11 13 17 9 14 6 12 9 10 2 11 10 9 9 8 16 20 33 35
46 19 29 65 28 22 33 11 22 47 57 7 14 11 45 47 25 25 34 12 78 38 19 11 12 9 9 1 1 5 16 13 13 10 1 6 10 2 9 14 18 20 25 30 33
18 41 47 103 34 24 17 18 18 51 44 20 16 11 48 29 18 10 19 25 75 34 27 17 3 10 7 6 4 10 2 10 13 6 13 9 10 3 4 2 4 19 27 30 34
16 16 31 83 77 33 30 14 26 63 9 12 22 31 34 22 12 15 14 9 62 36 38 22 8 13 20 10 16 14 12 12 13 6 10 14 7 10 9 7 10 22 30 35 35
24 10 17 41 28 42 34 34 50 27 9 18 10 44 48 24 10 16 22 16 7 34 16 10 9 5 11 8 14 14 29 24 36 42 25 31 28 10 16 17 20 27 31 31 32
12 11 19 25 57 48 37 44 64 33 26 30 44 58 51 37 29 38 24 15 31 8 10 5 6 8 9 8 8 10 21 36 42 28 24 9 11 13 20 26 26 35 37 38 34
38 28 41 39 42 43 35 47 69 47 9 36 41 40 36 26 23 41 36 19 30 23 9 12 11 7 4 4 12 7 28 25 24 13 34 24 17 14 12 27 50 47 46 41 32
Wind_Direction_850mb
237 237 237 237 233 228 235 236 231 233 226 242 225 232 205 205 213 216 201 185 188 208 200 197 198 142 157 151 144 135 77 185 216 159 230 169 174 174 172 155 165 185 159 164 179
237 235 238 238 240 236 231 236 231 230 225 231 230 216 197 196 202 209 203 192 188 196 206 209 186 169 161 166 152 114 137 210 196 197 223 196 184 166 162 159 194 191 195 180 181
237 234 231 235 237 242 236 241 227 228 224 226 225 213 201 189 205 231 208 192 192 195 187 179 165 168 196 177 159 136 189 194 215 213 215 225 213 174 152 208 208 201 198 185 185
235 231 230 235 239 237 236 242 218 224 225 220 221 209 199 192 207 201 226 204 201 198 200 183 150 151 174 181 179 132 239 185 177 187 160 188 194 205 191 201 221 213 213 198 192
234 226 231 229 229 243 230 224 226 221 222 217 212 206 199 199 214 146 217 210 204 199 205 207 200 167 192 159 165 165 190 207 213 219 224 193 222 222 216 201 175 199 206 209 203
231 226 232 230 230 233 237 217 239 219 219 215 219 204 196 211 214 199 312 205 201 195 206 211 202 188 235 172 192 212 173 186 202 219 193 161 200 205 234 207 187 191 207 211 213
238 228 227 230 233 236 248 231 235 221 213 211 213 212 201 207 211 199 227 211 191 195 190 195 198 164 197 142 197 143 139 74 178 209 148 160 120 229 226 205 210 203 209 210 214
231 232 222 225 227 239 251 238 231 230 212 206 209 205 203 222 211 207 205 196 193 200 208 196 161 174 142 131 70 105 65 148 232 171 186 158 258 240 214 205 217 212 208 209 214
230 227 221 230 231 231 247 229 219 232 216 207 194 199 205 211 216 220 192 187 187 195 202 167 197 187 219 101 78 24 164 196 251 199 156 170 228 223 199 206 217 217 213 211 214
220 221 222 227 231 226 236 219 212 238 229 200 188 178 176 202 196 198 175 188 162 155 159 162 196 155 125 156 193 170 158 214 197 207 149 169 263 292 212 208 220 226 223 222 221
214 222 222 228 226 226 225 217 197 213 232 197 167 192 182 183 181 172 174 167 147 178 187 174 173 194 185 166 155 146 133 163 201 198 159 201 249 235 216 221 233 235 233 229 228
212 219 225 228 225 218 224 216 202 162 196 228 192 183 173 179 153 161 163 146 164 182 198 129 204 191 150 141 131 136 154 196 294 60 157 169 254 261 216 243 226 230 237 239 239
212 221 229 234 231 222 223 216 211 208 186 231 187 177 163 167 160 161 171 159 172 161 183 171 183 156 141 144 141 160 167 183 161 83 60 50 283 261 242 239 249 245 240 246 246
215 222 226 231 231 229 225 214 217 212 198 185 209 169 167 168 139 165 174 156 162 176 130 161 128 149 140 168 130 163 194 143 130 108 221 102 274 257 237 234 219 242 241 242 244
217 216 220 221 223 235 224 211 216 208 214 149 177 153 172 163 137 184 163 149 164 153 144 176 153 155 153 173 159 210 130 136 102 104 59 359 274 264 17 254 238 242 237 241 245
224 231 224 225 232 226 223 228 198 184 205 147 147 139 164 150 160 139 134 92 119 94 65 111 159 161 161 80 137 155 86 57 55 85 282 215 170 259 193 209 230 228 233 238 243
236 248 234 227 228 220 215 212 196 211 162 155 147 152 160 146 139 162 153 162 163 138 164 89 182 127 140 92 39 95 104 41 10 350 220 91 180 254 253 242 212 224 210 242 259
257 250 234 233 233 221 228 226 204 142 169 188 150 153 152 142 162 169 159 163 241 101 142 164 199 175 182 172 158 175 154 151 182 202 227 233 232 242 233 262 249 236 218 220 267
274 263 252 238 225 219 217 232 218 148 155 146 146 154 141 148 130 157 179 189 191 187 152 150 188 70 157 158 153 187 188 148 106 48 57 215 296 302 258 259 256 230 215 216 198
284 277 255 238 217 215 235 221 212 170 132 154 144 161 160 154 138 160 180 197 187 190 210 180 117 277 167 98 29 179 150 165 48 138 251 279 273 239 236 157 152 199 204 179 162
287 257 253 227 203 203 221 213 250 180 155 164 143 151 175 173 160 175 185 197 200 180 131 123 105 197 140 210 160 123 181 103 122 159 171 200 261 220 260 290 277 240 200 175 165
262 228 216 185 183 192 220 171 225 161 163 141 131 87 162 158 154 162 178 225 193 170 158 166 115 142 180 243 169 183 172 154 182 209 169 146 272 125 283 274 257 243 191 179 167
264 216 205 174 189 186 166 198 218 159 167 145 147 146 162 156 135 127 153 221 171 171 168 176 123 101 56 353 27 206 244 126 102 95 190 152 254 301 8 16 123 161 169 169 162
264 201 172 186 190 181 179 182 173 176 95 98 130 120 137 154 118 146 133 182 177 177 188 122 150 162 183 194 130 157 163 162 137 184 163 217 206 241 201 197 153 145 154 157 155
221 235 183 173 169 173 181 162 165 173 162 131 98 155 159 155 112 160 142 126 151 175 156 136 140 94 32 130 123 151 176 179 198 217 197 233 215 213 205 194 185 160 159 166 166
244 229 156 164 160 164 194 183 171 160 166 177 171 170 168 169 183 173 151 149 174 103 124 5 175 110 29 10 125 137 175 188 208 209 239 129 231 224 202 188 198 193 185 183 177
216 233 176 166 169 174 198 180 177 161 343 173 154 155 172 161 103 142 146 119 139 154 122 117 124 99 187 349 88 354 207 190 208 193 215 217 194 180 191 202 214 205 199 191 192